Total_Precipitation_Accumulation
0.16 0.31 0.72 1.21 2.12 2.36 1.76 1.08 0.78 0.74 0.80 0.79 0.70 0.71 0.81 1.03 1.49 2.41 2.35 1.92 1.50 1.54 1.96 2.11 2.35 2.23 2.14 2.01 1.98 2.08 2.10 1.94 1.78 1.73 1.79 1.84 1.91 1.85 1.87 1.92 1.99 2.04 2.01 2.08 2.21 2.12 2.11 2.13 2.17
0.30 0.59 1.11 1.83 2.49 1.92 1.55 0.93 0.57 0.60 0.67 0.81 0.80 0.70 0.64 0.74 0.88 1.31 1.85 1.97 1.33 1.20 1.48 1.60 1.91 1.95 1.93 1.81 1.81 1.83 1.77 1.68 1.64 1.59 1.71 1.79 1.88 1.92 1.90 1.94 1.95 1.96 1.96 2.03 2.07 2.03 2.02 2.05 2.10
0.47 0.73 1.26 2.01 1.69 1.27 1.18 0.77 0.52 0.42 0.58 0.82 0.81 0.63 0.74 1.01 1.08 1.39 1.67 1.61 1.24 1.18 1.26 1.49 1.73 1.78 1.78 1.66 1.62 1.62 1.54 1.52 1.54 1.54 1.59 1.67 1.82 1.95 1.98 1.99 1.99 2.03 2.12 2.07 2.00 2.02 1.93 1.87 1.93
0.64 0.89 1.30 1.45 0.94 0.63 0.60 0.61 0.56 0.53 0.71 0.84 0.73 0.70 0.88 1.19 1.20 1.29 1.28 1.25 1.04 1.22 1.33 1.53 1.82 1.76 1.67 1.53 1.44 1.41 1.43 1.45 1.45 1.53 1.69 1.79 1.82 1.86 1.93 1.98 2.02 2.10 2.05 1.97 2.04 2.09 1.80 1.75 1.91
0.70 1.07 1.53 1.15 0.72 0.51 0.41 0.40 0.45 0.61 0.78 0.90 0.80 0.84 1.20 1.34 1.09 1.01 0.99 1.15 1.15 1.35 1.49 1.68 1.91 1.84 1.64 1.43 1.34 1.29 1.26 1.32 1.33 1.41 1.67 1.79 1.79 1.73 1.78 1.93 1.97 1.90 1.95 2.01 2.08 2.02 1.87 1.82 1.87
0.88 1.11 1.26 0.84 0.52 0.41 0.38 0.39 0.51 0.68 0.72 0.79 0.90 1.06 1.52 1.49 1.17 1.05 1.05 1.20 1.29 1.39 1.49 1.81 1.99 1.92 1.70 1.46 1.31 1.27 1.24 1.22 1.25 1.32 1.46 1.62 1.70 1.78 1.88 1.96 1.84 1.74 1.75 1.82 1.94 1.93 1.90 1.77 1.77
1.03 1.12 0.90 0.57 0.44 0.38 0.38 0.43 0.47 0.61 0.72 0.91 0.94 1.09 1.59 1.74 1.31 1.04 1.19 1.52 1.66 1.60 1.48 1.71 1.89 1.73 1.65 1.53 1.34 1.31 1.29 1.22 1.21 1.24 1.33 1.42 1.59 1.71 1.80 1.95 1.87 1.72 1.63 1.68 1.81 1.81 1.93 1.73 1.68
0.71 0.74 0.63 0.48 0.38 0.35 0.33 0.37 0.48 0.64 0.75 0.81 0.93 1.13 1.42 1.47 1.24 1.21 1.49 2.00 2.26 2.13 1.80 1.53 1.55 1.57 1.52 1.47 1.46 1.45 1.31 1.19 1.22 1.32 1.46 1.60 1.72 1.75 1.83 1.91 2.05 1.90 1.75 1.82 1.93 1.86 1.78 1.74 1.82
0.45 0.56 0.47 0.36 0.26 0.28 0.31 0.35 0.41 0.46 0.57 0.81 1.05 1.25 1.23 1.06 1.09 1.35 1.70 2.14 2.41 2.21 2.02 1.73 1.57 1.54 1.56 1.50 1.37 1.60 1.47 1.37 1.49 1.77 1.91 2.10 2.20 2.07 2.19 2.06 2.29 2.16 2.12 2.31 2.40 2.31 2.19 2.16 2.22
0.34 0.37 0.25 0.16 0.14 0.16 0.22 0.30 0.35 0.49 0.80 1.26 1.54 1.45 1.24 1.11 1.23 1.53 1.80 1.93 2.03 2.04 1.98 2.00 1.76 1.69 1.69 1.56 1.77 2.20 1.95 1.95 2.20 2.32 2.25 2.77 3.02 2.83 2.26 2.34 2.76 2.77 2.84 2.95 3.01 3.10 2.90 2.67 2.56
0.22 0.18 0.13 0.10 0.10 0.12 0.15 0.22 0.33 0.53 1.05 1.52 1.75 1.48 1.30 1.31 1.42 1.57 1.97 2.12 2.21 2.21 2.06 2.14 2.02 1.95 2.03 2.18 2.17 2.40 2.56 2.74 2.88 2.86 2.90 3.25 3.11 2.74 2.46 2.70 3.14 3.22 3.19 3.22 3.37 3.48 3.00 2.93 2.97
0.13 0.09 0.09 0.08 0.08 0.09 0.13 0.22 0.42 0.67 1.07 1.33 1.27 1.14 1.15 1.43 1.62 1.81 2.14 2.46 2.55 2.63 2.57 2.37 2.25 2.47 2.59 2.52 2.44 2.31 2.15 2.23 2.51 2.68 2.62 3.16 3.58 3.41 3.25 3.38 3.34 3.52 3.72 3.98 3.65 3.59 3.39 3.29 3.10
0.09 0.08 0.09 0.09 0.10 0.14 0.16 0.25 0.45 0.76 0.96 1.01 0.88 0.93 1.21 1.57 1.82 2.29 2.77 2.83 2.79 3.03 3.20 3.02 2.93 2.91 2.81 2.91 2.58 2.22 2.14 1.98 1.99 2.41 2.70 2.94 3.30 3.47 3.49 3.31 3.32 3.15 3.30 3.48 3.50 3.22 3.34 3.49 3.43
0.05 0.07 0.09 0.11 0.13 0.17 0.24 0.31 0.43 0.68 0.77 0.77 0.83 1.06 1.30 1.72 2.03 2.56 3.07 3.13 3.24 3.51 3.72 3.62 3.61 3.42 3.15 2.93 2.83 2.67 2.42 2.33 2.06 2.34 2.49 2.76 3.12 3.27 3.16 3.22 3.35 3.16 3.16 3.19 3.22 3.26 3.56 3.75 3.81
0.06 0.08 0.15 0.16 0.17 0.19 0.27 0.51 0.57 0.74 0.82 0.79 0.95 1.12 1.51 1.97 2.25 2.57 2.78 3.17 3.62 4.04 4.11 4.09 4.09 4.01 3.98 3.67 3.28 2.92 2.83 2.56 2.47 2.47 2.39 2.63 2.98 3.25 3.18 3.15 3.00 2.97 3.04 3.21 3.26 3.38 3.58 3.47 3.57
0.09 0.16 0.32 0.30 0.24 0.23 0.33 0.80 0.93 0.87 0.82 0.89 1.03 1.35 1.63 1.93 2.33 2.54 2.85 3.21 3.63 4.19 4.61 4.70 4.19 4.17 4.26 4.22 3.91 3.43 3.35 3.19 2.99 2.69 2.54 2.54 2.82 2.94 3.01 2.83 2.73 2.79 2.68 2.83 3.08 3.12 3.21 3.33 3.53
0.14 0.20 0.29 0.38 0.27 0.26 0.40 0.92 1.25 0.98 0.79 0.92 1.19 1.46 1.82 2.07 2.47 2.59 2.77 3.06 3.54 4.47 5.40 5.43 4.93 4.51 4.24 4.20 4.28 4.12 3.93 3.61 3.15 2.91 2.81 2.67 2.57 2.39 2.48 2.51 2.62 2.51 2.49 2.59 2.44 2.92 3.14 3.30 3.40
0.12 0.17 0.30 0.44 0.31 0.31 0.47 0.90 0.97 0.87 1.00 1.00 1.05 1.23 1.56 1.69 2.00 2.26 2.54 3.11 3.95 5.16 5.97 5.88 5.27 4.86 4.55 4.36 4.22 4.20 3.95 3.69 3.24 3.05 2.89 2.61 2.62 2.28 2.30 2.28 2.39 2.29 2.43 2.65 2.82 3.13 3.12 3.01 3.10
0.10 0.16 0.28 0.33 0.27 0.38 0.52 0.80 0.92 1.00 1.16 1.16 1.02 1.04 1.32 1.52 1.81 2.27 2.82 3.68 4.78 5.72 6.00 5.51 5.07 4.75 4.36 4.02 3.43 3.11 3.21 3.19 2.95 2.64 2.33 2.25 2.16 2.21 2.42 2.21 2.42 2.26 2.37 2.48 2.59 2.77 2.83 2.72 2.78
0.10 0.16 0.27 0.32 0.24 0.31 0.50 0.86 1.18 1.15 1.07 1.01 1.08 1.10 1.18 1.54 1.99 2.72 3.73 4.32 4.60 4.74 4.47 4.16 3.93 3.75 3.29 3.06 2.96 2.77 2.82 2.58 2.42 2.33 2.39 2.03 1.92 1.99 1.97 2.24 2.24 2.27 2.47 2.50 2.49 2.70 2.68 2.49 2.55
0.14 0.18 0.26 0.32 0.23 0.29 0.53 1.06 1.35 1.31 1.07 0.93 1.00 1.02 1.18 1.57 2.17 3.00 3.58 3.71 3.47 3.13 3.01 2.97 3.05 2.81 2.71 2.79 2.75 2.69 2.78 2.50 2.31 2.23 2.30 1.95 1.71 1.73 1.85 1.96 2.10 2.33 2.26 2.44 2.52 2.44 2.54 2.59 2.55
0.13 0.11 0.11 0.15 0.24 0.45 0.65 1.32 1.53 1.32 1.22 1.02 1.04 1.05 1.07 1.35 1.74 2.18 2.45 2.33 2.43 2.56 2.57 2.70 2.79 2.53 2.52 2.50 2.26 2.22 2.20 2.10 2.05 2.07 2.17 2.22 1.84 1.67 1.66 1.77 1.97 2.18 2.10 2.37 2.13 2.26 2.52 2.61 2.46
0.07 0.06 0.09 0.17 0.32 0.53 0.72 1.03 1.25 1.09 1.25 1.03 0.92 0.92 0.86 1.05 1.23 1.36 1.47 1.58 1.76 1.89 2.07 2.33 2.58 2.52 2.36 2.19 2.18 2.27 2.13 2.13 2.14 2.16 2.25 2.34 2.11 1.85 1.67 1.77 1.97 2.06 2.00 2.06 2.07 2.42 2.43 2.36 2.31
0.07 0.09 0.19 0.31 0.50 1.02 0.97 0.95 1.18 1.17 1.24 1.03 0.89 0.76 0.79 0.92 1.08 1.15 1.18 1.29 1.44 1.58 1.80 2.05 2.38 2.45 2.34 2.20 2.12 2.20 2.28 2.27 2.21 2.24 2.24 2.07 2.02 2.00 1.83 1.84 1.96 1.91 1.86 1.89 1.96 2.23 2.26 2.35 2.43
0.09 0.13 0.36 0.72 1.10 1.27 0.83 0.90 1.16 1.04 0.92 0.79 0.62 0.58 0.68 0.88 1.03 1.15 1.15 1.14 1.20 1.34 1.47 1.54 1.75 2.03 2.15 2.12 2.10 2.12 2.29 2.22 2.04 1.96 1.94 1.92 1.74 1.67 1.74 1.82 1.97 1.80 1.74 1.81 2.04 2.16 2.17 2.30 2.33
0.07 0.09 0.22 0.39 0.49 0.65 0.81 1.19 1.30 1.02 0.70 0.46 0.44 0.56 0.74 0.88 0.96 1.06 1.07 1.00 1.01 1.09 1.26 1.41 1.68 1.83 2.00 2.05 2.03 2.06 2.14 2.04 1.88 1.90 1.72 1.72 1.66 1.57 1.66 1.73 1.74 1.70 1.72 1.72 2.08 1.99 2.04 2.15 2.08
0.08 0.08 0.09 0.16 0.21 0.45 0.83 1.13 1.09 0.87 0.70 0.54 0.51 0.56 0.73 0.79 0.78 0.90 0.93 1.04 1.07 1.03 1.13 1.29 1.60 1.88 2.08 2.17 2.20 2.13 2.14 2.14 2.08 2.00 1.76 1.57 1.71 1.61 1.70 1.77 1.75 1.77 1.90 2.04 2.23 2.07 2.10 2.19 1.99
0.08 0.09 0.10 0.12 0.22 0.38 0.67 1.07 1.26 1.07 0.85 0.69 0.62 0.62 0.72 0.75 0.77 0.98 1.13 1.13 1.01 0.90 0.95 1.13 1.42 1.87 2.12 2.24 2.19 2.04 2.20 2.12 2.08 2.00 1.82 1.66 1.64 1.65 1.78 1.94 1.92 1.97 2.01 2.15 2.25 2.06 2.15 2.16 2.05
0.09 0.10 0.12 0.12 0.15 0.24 0.53 0.75 0.72 0.67 0.64 0.67 0.74 0.72 0.61 0.68 0.83 1.05 1.29 1.22 0.96 0.85 0.84 0.99 1.35 1.67 1.89 2.03 2.08 1.96 1.91 1.84 1.85 1.87 1.84 1.82 1.79 1.73 1.77 1.90 1.96 1.93 1.99 2.09 2.17 2.00 2.06 2.03 2.06
0.11 0.13 0.16 0.19 0.17 0.16 0.29 0.53 0.42 0.48 0.58 0.67 0.79 0.86 0.82 0.85 0.91 0.97 1.12 1.24 1.13 0.99 0.92 1.09 1.38 1.58 1.68 1.76 1.78 1.78 1.79 1.78 1.70 1.66 1.73 1.79 1.70 1.62 1.68 1.76 1.75 1.68 1.80 1.99 2.01 1.92 1.99 2.04 2.01